Home > Weather > Cumberland > Past weeks

Flag for USA Past Weather in Cumberland, Maryland, USA — Yesterday and Last 2 Weeks

Now
69 °F

Clear.


Feels Like: 69 °F
Forecast: 66 / 87 °F
Wind: No wind

Location: Eastern West Virginia Regional Airport

Current Time: Aug 30, 2016 at 3:28:09 AM

Latest Report: Aug 30, 2016 at 2:53 AM


Visibility: 10 mi

Pressure: 30.13 "Hg

Humidity: 76%

Dew Point: 61 °F

Location of CumberlandLocation

Past Weather in Cumberland — Graph

°F

Cumberland Temperature Yesterday

Maximum temperature yesterday: 92 °F (at 4:53 PM)
Minimum temperature yesterday: 66 °F (at 4:53 AM)
Average temperature yesterday: 78 °F

High & Low Weather Summary for the Past Weeks

 TemperatureHumidityPressure
High93 °F (Aug 26, 3:53 PM)100% (Aug 15, 11:53 PM)30.35 "Hg (Aug 15, 11:53 PM)
Low57 °F (Aug 23, 3:53 AM)39% (Aug 22, 5:53 PM)29.77 "Hg (Aug 21, 3:53 PM)
Average76 °F73%30.08 "Hg
* Reported Aug 15 1:53 AM — Aug 30 1:53 AM, Cumberland, Weather by CustomWeather, © 2016

Note: Actual official high and low records may vary slightly from our data, if they occured in-between our weather recording intervals... More about our weather records

Advertising

Cumberland Weather History for the Previous 24 Hours

Scroll right to see more
 ConditionsComfort  
Time TempWeatherWind HumidityBarometerVisibility
1:53 AM
Tue, Aug 30
72 °FClear.3 mph68%30.12 "Hg10 mi
12:53 AM71 °FClear.No wind71%30.13 "Hg10 mi
11:53 PM
Mon, Aug 29
74 °FClear.5 mph64%30.13 "Hg10 mi
10:53 PM76 °FClear.No wind58%30.13 "Hg10 mi
9:53 PM78 °FClear.6 mph52%30.13 "Hg10 mi
8:53 PM81 °FClear.7 mph45%30.11 "Hg10 mi
7:53 PM84 °FSunny.10 mph43%30.09 "Hg10 mi
6:53 PM90 °FSunny.3 mph39%30.07 "Hg10 mi
5:53 PM90 °FSunny.7 mph42%30.07 "Hg10 mi
4:53 PM92 °FSunny.6 mph40%30.08 "Hg10 mi
3:53 PM91 °FPartly sunny.7 mph44%30.10 "Hg10 mi
2:53 PM88 °FScattered clouds.5 mph48%30.13 "Hg10 mi
1:53 PM87 °FPartly sunny.6 mph50%30.16 "Hg10 mi
12:53 PM86 °FSunny.No wind53%30.16 "Hg10 mi
11:53 AM85 °FSunny.8 mph55%30.17 "Hg10 mi
10:53 AM82 °FSunny.8 mph58%30.19 "Hg10 mi
9:53 AM79 °FSunny.5 mph65%30.19 "Hg10 mi
8:53 AM74 °FSunny.No wind76%30.18 "Hg10 mi
7:53 AM69 °FSunny.No wind90%30.18 "Hg10 mi
6:53 AM66 °FClear.No wind93%30.16 "Hg9 mi
5:53 AM67 °FClear.3 mph90%30.14 "Hg10 mi
4:53 AM66 °FClear.No wind93%30.12 "Hg10 mi
3:53 AM68 °FClear.No wind90%30.11 "Hg10 mi
Weather by CustomWeather, © 2016

See weather overviewHow to use our weather pages